Location: Brno
(49.2000°N, 16.6330°E)
Time: 00:33:13
(UTC+02:00)

X-37B - Pass Details

Date: 16 June 2021
Orbit: 383 x 392 km, 45.0° (Epoch: 01 July)

Event Time Altitude Azimuth Distance (km) Brightness Sun altitude
Exits shadow 03:08:09 20° 224° (SW) 968 2.0 -11.6°
Maximum altitude 03:09:49 34° 171° (S) 658 1.3 -11.4°
Drops below altitude 10° 03:12:44 10° 104° (ESE) 1,409 3.7 -11.2°
Sets 03:14:54 0° 95° (E) 2,266 4.9 -11.0°
